Regional Weather Roundup
Issued by NWS Sioux Falls, SD

Home | Current Version | Previous Version | Text Only | Print | Product List | Glossary On
Versions: 1 2 3 4 5 6 7 8 9 10 11 12 13 14 15 16 17 18 19 20 21 22 23 24 25 26 27 28 29 30 31 32 33 34 35 36 37 38 39 40 41 42 43 44 45 46 47 48 49 50
000
ASUS43 KFSD 060302
RWRFSD

WEATHER ROUNDUP FOR SE SOUTH DAKOTA/SW MINNESOTA/NW IOWA
NATIONAL WEATHER SERVICE SIOUX FALLS SD
1000 PM CDT SUN JUL 05 2015

NOTE: "FAIR" INDICATES FEW OR NO CLOUDS BELOW 12,000 FEET WITH NO
SIGNIFICANT WEATHER AND OR OBSTRUCTIONS TO VISIBILITY.


SDZ038>040-050-052>070-060400-
SOUTHEAST SOUTH DAKOTA

CITY           SKY/WX    TMP DP  RH WIND       PRES   REMARKS
BROOKINGS      CLOUDY    79  72  78 S6        29.82R
CHAMBERLAIN    NOT AVBL
HURON          CLOUDY    71  69  93 NE18      29.80R
MADISON        CLOUDY    77  77 100 CALM      29.80R
MITCHELL       CLOUDY    81  75  82 SE5       29.75R
SIOUX FALLS    CLOUDY    81  73  76 SE12      29.76R
WINNER         TSTM      69  66  90 N38G53    29.80S
YANKTON        CLOUDY    81  73  78 E5        29.73R
$$

MNZ071-072-080-081-089-090-097-098-060400-
SOUTHWEST MINNESOTA

CITY           SKY/WX    TMP DP  RH WIND       PRES   REMARKS
FAIRMONT       CLEAR     77  66  69 S12       29.83R
JACKSON        PTCLDY    79  70  73 S8        29.84R
MARSHALL       CLOUDY    82  70  65 S12       29.78R
PIPESTONE      MOCLDY    79  72  78 S10G16    29.80R
REDWOOD FALLS  CLOUDY    82  69  64 S10       29.77R
TRACY          MOCLDY    81  71  70 S10       29.78R
WINDOM         PTCLDY    79  70  73 S7        29.81S
WORTHINGTON    CLOUDY    79  66  65 S12       29.81S
$$

IAZ001>003-012>014-020>022-031-032-NEZ013-014-SDZ071-060400-
NORTHWEST IOWA

CITY           SKY/WX    TMP DP  RH WIND       PRES   REMARKS
DENISON        PTCLDY    79  72  78 SE14G23   29.79R
ESTHERVILLE    MOCLDY    77  69  76 S14       29.83R
SIOUX CITY     MOCLDY    82  72  71 SE12      29.75R
SPENCER        CLEAR     79  68  69 S14       29.82R
$$

ABBREVIATIONS USED IN REMARKS
   TC - TEMPERATURE IN CELSIUS
  WCI - WIND CHILL INDEX
   HX - HEAT INDEX
  VSB - VISIBILITY



USA.gov is the U.S. government's official web portal to all federal, state and local government web resources and services.